Time,TemperatureF,DewpointF,PressureIn,WindDirection,WindDirectionDegrees,WindSpeedMPH,WindSpeedGustMPH,Humidity,HourlyPrecipIn,Conditions,Clouds,dailyrainin,SolarRadiationWatts/m^2,SoftwareType,DateUTC
2013-02-18 00:01:00,34.0,32.0,-100.00,SSW,200,0.0,3.0,94,-99.99,,,0.00,1.000000,,2013-02-18 08:01:00,
2013-02-18 00:33:00,33.0,32.0,-100.00,NE,40,0.0,0.0,95,0.00,,,0.00,1.000000,,2013-02-18 08:33:00,
2013-02-18 00:42:00,33.0,32.0,-100.00,NE,40,0.0,0.0,95,0.00,,,0.00,1.000000,,2013-02-18 08:42:00,
2013-02-18 00:52:00,33.0,32.0,-100.00,NE,40,0.0,0.0,95,0.00,,,0.00,1.000000,,2013-02-18 08:52:00,
2013-02-18 01:02:00,33.0,32.0,-100.00,NE,40,0.0,0.0,95,0.00,,,0.00,1.000000,,2013-02-18 09:02:00,
2013-02-18 01:32:00,33.0,32.0,-100.00,East,100,0.0,0.0,95,0.00,,,0.00,1.000000,,2013-02-18 09:32:00,
2013-02-18 01:42:00,33.0,32.0,-100.00,East,100,0.0,0.0,95,0.00,,,0.00,1.000000,,2013-02-18 09:42:00,
2013-02-18 01:52:00,33.0,32.0,-100.00,East,100,0.0,0.0,95,0.00,,,0.00,1.000000,,2013-02-18 09:52:00,
2013-02-18 02:01:00,33.0,32.0,-100.00,East,100,0.0,0.0,95,0.00,,,0.00,1.000000,,2013-02-18 10:01:00,
2013-02-18 02:32:00,33.0,32.0,-100.00,NE,51,0.0,0.0,96,0.00,,,0.00,1.000000,,2013-02-18 10:32:00,
2013-02-18 02:42:00,33.0,32.0,-100.00,NE,51,0.0,0.0,96,0.00,,,0.00,1.000000,,2013-02-18 10:42:00,
2013-02-18 02:52:00,33.0,32.0,-100.00,NE,51,0.0,0.0,96,0.00,,,0.00,1.000000,,2013-02-18 10:52:00,
2013-02-18 03:01:00,33.0,32.0,-100.00,NE,51,0.0,0.0,96,0.00,,,0.00,1.000000,,2013-02-18 11:01:00,
2013-02-18 03:33:00,33.0,32.0,-100.00,WSW,238,2.0,3.0,96,0.00,,,0.00,1.000000,,2013-02-18 11:33:00,
2013-02-18 03:43:00,33.0,32.0,-100.00,WSW,238,2.0,3.0,96,0.00,,,0.00,1.000000,,2013-02-18 11:43:00,
2013-02-18 03:53:00,33.0,32.0,-100.00,WSW,238,2.0,3.0,96,0.00,,,0.00,1.000000,,2013-02-18 11:53:00,
2013-02-18 04:01:00,33.0,32.0,-100.00,WSW,238,2.0,3.0,96,0.00,,,0.00,1.000000,,2013-02-18 12:01:00,
2013-02-18 04:32:00,34.0,33.0,-100.00,WSW,251,1.0,4.0,96,0.00,,,0.00,1.000000,,2013-02-18 12:32:00,
2013-02-18 04:42:00,34.0,33.0,-100.00,WSW,251,1.0,4.0,96,0.00,,,0.00,1.000000,,2013-02-18 12:42:00,
2013-02-18 04:53:00,34.0,33.0,-100.00,WSW,251,1.0,4.0,96,0.00,,,0.00,1.000000,,2013-02-18 12:53:00,
2013-02-18 05:02:00,34.0,33.0,-100.00,WSW,251,1.0,4.0,96,0.00,,,0.00,1.000000,,2013-02-18 13:02:00,
2013-02-18 05:32:00,34.0,32.0,-100.00,SW,234,2.0,5.0,91,0.00,,,-99.99,1.000000,,2013-02-18 13:32:00,
2013-02-18 05:42:00,34.0,32.0,-100.00,SW,234,2.0,5.0,91,0.00,,,-99.99,1.000000,,2013-02-18 13:42:00,
2013-02-18 05:53:00,34.0,32.0,-100.00,SW,234,2.0,5.0,91,0.00,,,-99.99,1.000000,,2013-02-18 13:53:00,
2013-02-18 06:02:00,34.0,32.0,-100.00,SW,234,2.0,5.0,91,0.00,,,-99.99,1.000000,,2013-02-18 14:02:00,
2013-02-18 06:33:00,35.0,33.0,-100.00,South,175,3.0,8.0,91,0.00,,,0.00,1.000000,,2013-02-18 14:33:00,
2013-02-18 06:42:00,35.0,33.0,-100.00,South,175,3.0,8.0,91,0.00,,,0.00,1.000000,,2013-02-18 14:42:00,
2013-02-18 06:53:00,35.0,33.0,-100.00,South,175,3.0,8.0,91,0.00,,,0.00,1.000000,,2013-02-18 14:53:00,
2013-02-18 07:01:00,35.0,33.0,-100.00,South,175,3.0,8.0,91,0.00,,,0.00,1.000000,,2013-02-18 15:01:00,
2013-02-18 07:32:00,33.0,31.0,-100.00,SE,145,2.0,5.0,94,0.00,,,0.00,1.000000,,2013-02-18 15:32:00,
2013-02-18 07:42:00,33.0,31.0,-100.00,SE,145,2.0,5.0,94,0.00,,,0.00,1.000000,,2013-02-18 15:42:00,
2013-02-18 07:52:00,33.0,31.0,-100.00,SE,145,2.0,5.0,94,0.00,,,0.00,1.000000,,2013-02-18 15:52:00,
2013-02-18 08:02:00,33.0,31.0,-100.00,SE,145,2.0,5.0,94,0.00,,,0.00,1.000000,,2013-02-18 16:02:00,
2013-02-18 08:33:00,35.0,33.0,-100.00,NNW,342,0.0,4.0,93,0.00,,,0.00,27.000000,,2013-02-18 16:33:00,
2013-02-18 08:43:00,35.0,33.0,-100.00,NNW,342,0.0,4.0,93,0.00,,,0.00,27.000000,,2013-02-18 16:43:00,
2013-02-18 08:52:00,35.0,33.0,-100.00,NNW,342,0.0,4.0,93,0.00,,,0.00,27.000000,,2013-02-18 16:52:00,
2013-02-18 09:03:00,35.0,33.0,-100.00,NNW,342,0.0,4.0,93,0.00,,,0.00,27.000000,,2013-02-18 17:03:00,
2013-02-18 09:33:00,38.0,34.0,-100.00,West,263,2.0,5.0,84,0.00,,,0.00,77.000000,,2013-02-18 17:33:00,
2013-02-18 09:43:00,38.0,34.0,-100.00,West,263,2.0,5.0,84,0.00,,,0.00,77.000000,,2013-02-18 17:43:00,
2013-02-18 09:52:00,38.0,34.0,-100.00,West,263,2.0,5.0,84,0.00,,,0.00,77.000000,,2013-02-18 17:52:00,
2013-02-18 10:01:00,38.0,34.0,-100.00,West,263,2.0,5.0,84,0.00,,,0.00,77.000000,,2013-02-18 18:01:00,
2013-02-18 10:33:00,40.0,33.0,-100.00,South,173,2.0,4.0,76,0.00,,,0.00,164.000000,,2013-02-18 18:33:00,
2013-02-18 10:43:00,40.0,33.0,-100.00,South,173,2.0,4.0,76,0.00,,,0.00,164.000000,,2013-02-18 18:43:00,
2013-02-18 10:52:00,40.0,33.0,-100.00,South,173,2.0,4.0,76,0.00,,,0.00,164.000000,,2013-02-18 18:52:00,
2013-02-18 11:02:00,40.0,33.0,-100.00,South,173,2.0,4.0,76,0.00,,,0.00,164.000000,,2013-02-18 19:02:00,
2013-02-18 11:33:00,41.0,32.0,-100.00,West,260,4.0,7.0,71,0.00,,,0.00,193.000000,,2013-02-18 19:33:00,
2013-02-18 11:43:00,41.0,32.0,-100.00,West,260,4.0,7.0,71,0.00,,,0.00,193.000000,,2013-02-18 19:43:00,
2013-02-18 11:52:00,41.0,32.0,-100.00,West,260,4.0,7.0,71,0.00,,,0.00,193.000000,,2013-02-18 19:52:00,
2013-02-18 12:01:00,41.0,32.0,-100.00,West,260,4.0,7.0,71,0.00,,,0.00,193.000000,,2013-02-18 20:01:00,
2013-02-18 13:33:00,45.0,33.0,-100.00,WSW,249,4.0,9.0,63,-99.99,,,0.00,208.000000,,2013-02-18 21:33:00,
2013-02-18 13:43:00,45.0,33.0,-100.00,WSW,249,4.0,9.0,63,-99.99,,,0.00,208.000000,,2013-02-18 21:43:00,
2013-02-18 13:52:00,45.0,33.0,-100.00,WSW,249,4.0,9.0,63,-99.99,,,0.00,208.000000,,2013-02-18 21:52:00,
2013-02-18 14:02:00,45.0,33.0,-100.00,WSW,249,4.0,9.0,63,-99.99,,,0.00,208.000000,,2013-02-18 22:02:00,
2013-02-18 15:34:00,47.0,32.0,-100.00,West,267,5.0,12.0,55,-99.99,,,0.00,235.000000,,2013-02-18 23:34:00,
2013-02-18 15:43:00,47.0,32.0,-100.00,West,267,5.0,12.0,55,-99.99,,,0.00,235.000000,,2013-02-18 23:43:00,
2013-02-18 15:53:00,47.0,32.0,-100.00,West,267,5.0,12.0,55,-99.99,,,0.00,235.000000,,2013-02-18 23:53:00,
2013-02-18 16:02:00,47.0,32.0,-100.00,West,267,5.0,12.0,55,-99.99,,,0.00,235.000000,,2013-02-19 00:02:00,
2013-02-18 16:35:00,47.0,33.0,-100.00,WSW,242,4.0,11.0,59,0.00,,,0.00,161.000000,,2013-02-19 00:35:00,
2013-02-18 16:44:00,47.0,33.0,-100.00,WSW,242,4.0,11.0,59,0.00,,,0.00,161.000000,,2013-02-19 00:44:00,
2013-02-18 16:54:00,47.0,33.0,-100.00,WSW,242,4.0,11.0,59,0.00,,,0.00,161.000000,,2013-02-19 00:54:00,
2013-02-18 17:02:00,47.0,33.0,-100.00,WSW,242,4.0,11.0,59,0.00,,,0.00,161.000000,,2013-02-19 01:02:00,
2013-02-18 17:35:00,44.0,35.0,-100.00,SSE,162,3.0,8.0,71,0.00,,,-99.99,32.000000,,2013-02-19 01:35:00,
2013-02-18 17:44:00,44.0,35.0,-100.00,SSE,162,3.0,8.0,71,0.00,,,-99.99,32.000000,,2013-02-19 01:44:00,
2013-02-18 17:55:00,44.0,35.0,-100.00,SSE,162,3.0,8.0,71,0.00,,,-99.99,32.000000,,2013-02-19 01:55:00,
2013-02-18 18:01:00,44.0,35.0,-100.00,SSE,162,3.0,8.0,71,0.00,,,-99.99,32.000000,,2013-02-19 02:01:00,
2013-02-18 18:35:00,42.0,37.0,-100.00,ESE,110,2.0,4.0,81,0.00,,,0.00,5.000000,,2013-02-19 02:35:00,
2013-02-18 18:54:00,42.0,37.0,-100.00,ESE,110,2.0,4.0,81,0.00,,,0.00,5.000000,,2013-02-19 02:54:00,
2013-02-18 19:04:00,42.0,37.0,-100.00,ESE,110,2.0,4.0,81,0.00,,,0.00,5.000000,,2013-02-19 03:04:00,
2013-02-18 19:35:00,40.0,36.0,-100.00,SE,134,2.0,4.0,86,0.00,,,0.00,1.000000,,2013-02-19 03:35:00,
2013-02-18 19:45:00,40.0,36.0,-100.00,SE,134,2.0,4.0,86,0.00,,,0.00,1.000000,,2013-02-19 03:45:00,
2013-02-18 19:54:00,40.0,36.0,-100.00,SE,134,2.0,4.0,86,0.00,,,0.00,1.000000,,2013-02-19 03:54:00,
2013-02-18 20:01:00,40.0,36.0,-100.00,SE,134,2.0,4.0,86,0.00,,,0.00,1.000000,,2013-02-19 04:01:00,
2013-02-18 20:34:00,38.0,35.0,-100.00,SE,138,2.0,3.0,88,0.00,,,0.00,1.000000,,2013-02-19 04:34:00,
2013-02-18 20:44:00,38.0,35.0,-100.00,SE,138,2.0,3.0,88,0.00,,,0.00,1.000000,,2013-02-19 04:44:00,
2013-02-18 20:54:00,38.0,35.0,-100.00,SE,138,2.0,3.0,88,0.00,,,0.00,1.000000,,2013-02-19 04:54:00,
2013-02-18 21:01:00,38.0,35.0,-100.00,SE,138,2.0,3.0,88,0.00,,,0.00,1.000000,,2013-02-19 05:01:00,
2013-02-18 21:32:00,38.0,35.0,-100.00,ESE,121,1.0,3.0,88,0.00,,,0.00,1.000000,,2013-02-19 05:32:00,
2013-02-18 21:43:00,38.0,35.0,-100.00,ESE,121,1.0,3.0,88,0.00,,,0.00,1.000000,,2013-02-19 05:43:00,
2013-02-18 21:52:00,38.0,35.0,-100.00,ESE,121,1.0,3.0,88,0.00,,,0.00,1.000000,,2013-02-19 05:52:00,
2013-02-18 22:02:00,38.0,35.0,-100.00,ESE,121,1.0,3.0,88,0.00,,,0.00,1.000000,,2013-02-19 06:02:00,
2013-02-18 22:33:00,38.0,36.0,-100.00,ESE,120,0.0,3.0,91,0.00,,,-99.99,1.000000,,2013-02-19 06:33:00,
2013-02-18 22:42:00,38.0,36.0,-100.00,ESE,120,0.0,3.0,91,0.00,,,-99.99,1.000000,,2013-02-19 06:42:00,
2013-02-18 22:52:00,38.0,36.0,-100.00,ESE,120,0.0,3.0,91,0.00,,,-99.99,1.000000,,2013-02-19 06:52:00,
2013-02-18 23:01:00,38.0,36.0,-100.00,ESE,120,0.0,3.0,91,0.00,,,-99.99,1.000000,,2013-02-19 07:01:00,
2013-02-18 23:32:00,38.0,35.0,-100.00,SE,131,1.0,3.0,89,0.00,,,0.00,1.000000,,2013-02-19 07:32:00,
2013-02-18 23:42:00,38.0,35.0,-100.00,SE,131,1.0,3.0,89,0.00,,,0.00,1.000000,,2013-02-19 07:42:00,
2013-02-18 23:52:00,38.0,35.0,-100.00,SE,131,1.0,3.0,89,0.00,,,0.00,1.000000,,2013-02-19 07:52:00,